Showing default

HUYGENS, 55093

Orbit data source: Space-Track

HUYGENS, 55093 is a Norwegian payload satellite in SSO that was launched on Tue, 03 Jan 2023 UTC via an FALCON 9 launch vehicle from the Air Force Eastern Test Range (AFETR). Payload-class satellites include a variety of spacecraft equipped with specific instruments for various scientific and technological missions. These include communications satellites like Starlink; space stations such as the ISS; scientific satellites like the Hubble; Earth observation satellites from companies like Planet Labs, Umbra, and HawkEye 360; GPS; miniature CubeSats for education and research; and military/defense satellites.

Loading next visibility...
Identifier
55093, 2023-001CN
Orbit
SSO
Country
Flag of NONO / NOR
Related business
Manufacturer
NanoAvionics
Mission
Operational Civil Sigint
Bus & Motor
CUBESAT 6U, Unknown motor
Mass
10 kg wet, ~10 kg dry
Launch date (UTC)
2023-01-03 (3 years ago)
Launch vehicle
FALCON 9
Launch site
Air Force Eastern Test Range (AFETR)
Object type
Payload
Rocket body
Debris
Shape & HBR
Box + 2 Pan, 0.1 m
Radar Cross Section
0.080 m², Medium (>0.1 m² and < 1m²)

Expand to show TLE details & history
Last TLE update: 12 hours ago

TLE from 12 hours ago
0 HUYGENS
1 55093U 23001CN  25260.32857047  .00007539  00000-0  23270-3 0  9990
2 55093  97.3652 322.7438 0010106 352.7694   7.3401 15.33802355150454
Epoch: 2025-09-17T07:53Z
TLE epoch observation values (Epoch: 2025-09-17T07:53:08.488Z)
Latitude
-0.00006°
Longitude
-152.04765°
Altitude
460.73 km
Speed
7.64 km/s
True Right ascension
21h 30m 58s
True Declination
0° 00' 00"
Sunlit
Object was in full shadow at epoch
Visualization orbit readout
Latitude
Unknown
Longitude
Unknown
Altitude
Unknown
Speed
Unknown
Apparent Right ascension
Unknown
Apparent Declination
Unknown
Sunlit
N/A
Visualization observer readout
Local Sidereal Time
12:32:34
Azimuth
Unknown
Elevation
Unknown
Doppler factor
Unknown
Orbital elements
Apogee altitude
468.338 km
Perigee altitude
454.514 km
Semi-major axis
6,839.563 km
Eccentricity
0.00101
Inclination
97.3652°
RAAN
322.7438°
Arg. of periapsis
352.7694°
True anomaly
7.35491°
Mean anomaly
7.3401°
Eccentric anomaly
7.34751°
Mean motion
3.83708 °/min
Orbital period
93.82 mins
BSTAR
0.0002327
Loading maneuver chart data...
Computing Atmospheric mass density...
Loading historical data...
Loading historical data...
Loading historical data...
Loading historical data...
Loading historical data...
Loading historical data...
Loading historical data...

Documentation

Showing up to 5 results
|